sat.trackr.live / text

‹ back to catalog

STARLINK-5607

NORAD 55404 · 2023-014P

PAYLOAD ACTIVE UNKNOWN

§ Identity

Operator
Country
US
Launch date
2023-01-31
Launch site
AFWTR
Launch vehicle
Mass (kg)
RCS (m²)

Purposes: comms

External: N2YO · Heavens-Above · Gunter

§ Orbital elements

Epoch: 2026-05-25T04:53:12.888096Z

Period
96.11 min
Inclination
69.9995°
Eccentricity
0.0003195
Mean motion
14.98324419 rev/d
Perigee alt
569.9 km
Apogee alt
574.3 km
Semi-major
6,950.2 km
B*
-6.0217e-5
RAAN
231.6478°
Arg perigee
270.0967°
Mean anomaly
89.9826°
Rev number
18,351

§ Raw data

STARLINK-56071 55404U 23014P   26145.20362139 -.00000811  00000+0 -60217-4 0  99932 55404  69.9995 231.6478 0003195 270.0967  89.9826 14.98324419183512

JSON: /api/v1/satellites/55404 · /tle

For live sub-satellite position, see the globe view (requires WebGL).

§ Visibility from observer

Set your observer location to see the next 7 days of passes ≥ 10°. The values pass through the URL so the page stays shareable.

No JS? Fill the form by hand. The geolocation button needs JavaScript.